Appleton, MN

2:26 PM CST on November 22, 2019 (GMT -0600)
Appleton Municipal

Weather History for KAQP - August, 2019

Change the Weather History Date:

Friday, August 30, 2019

  Actual Average Record
Temperature  
Mean Temperature 60 °F -  
Max Temperature 73 °F 77 °F 87 °F (2008)
Min Temperature 46 °F 54 °F 42 °F (2007)
Degree Days  
Heating Degree Days 6    
Growing Degree Days 10 (Base 50)    
Moisture  
Dew Point 48 °F    
Average Humidity 68    
Maximum Humidity 100    
Minimum Humidity 33    
Precipitation  
Precipitation 0.00 in - - ()
Sea Level Pressure  
Sea Level Pressure 30.17 in    
Wind  
Wind Speed 0 mph (NNW)    
Max Wind Speed 8 mph    
Max Gust Speed -    
Visibility 9 miles    
Events Fog    
Averages and records for this station are not official NWS values.
T = Trace of Precipitation, MM = Missing Value Source: NWS Daily Summary

Daily Weather History Graph

Daily Weather History Graph

Search for Another Location

Airport or City:

Astronomy

Aug. 30, 2019 Rise Set
Actual Time 6:43 AM CDT 8:05 PM CDT
Civil Twilight 6:12 AM CDT 8:35 PM CDT
Nautical Twilight 5:35 AM CDT 9:12 PM CDT
Astronomical Twilight 4:55 AM CDT 9:51 PM CDT
Moon 6:42 AM CDT (8/30) 8:42 PM CDT (8/30)
Length of Visible Light 14h 23m
Length of Day
13h 22m
New Moon, 0% of the Moon is Illuminated
Aug 30
New Moon
Sep 5
First Quarter
Sep 13
Full
Sep 21
Last Quarter
Sep 28
New

Hourly Weather History & Observations

Time (CDT) Temp. Dew Point Humidity Pressure Visibility Wind Dir Wind Speed Gust Speed Precip Events Conditions
12:11 AM 51.8 °F 46.4 °F 82% 30.08 in 10.0 mi Calm Calm - N/A   Clear
12:31 AM 51.8 °F 46.4 °F 82% 30.08 in 10.0 mi Calm Calm - N/A   Clear
12:51 AM 51.8 °F 48.2 °F 88% 30.08 in 10.0 mi Calm Calm - N/A   Clear
1:10 AM 51.8 °F 48.2 °F 88% 30.08 in 10.0 mi Calm Calm - N/A   Clear
1:31 AM 48.2 °F 46.4 °F 93% 30.08 in 10.0 mi Calm Calm - N/A   Clear
1:50 AM 50.0 °F 48.2 °F 94% 30.08 in 10.0 mi Calm Calm - N/A   Clear
2:11 AM 50.0 °F 46.4 °F 87% 30.08 in 10.0 mi Calm Calm - N/A   Clear
2:31 AM 51.8 °F 48.2 °F 88% 30.08 in 10.0 mi Calm Calm - N/A   Clear
2:50 AM 48.2 °F 46.4 °F 93% 30.08 in 10.0 mi Calm Calm - N/A   Clear
3:10 AM 48.2 °F 46.4 °F 93% 30.09 in 0.5 mi Calm Calm - N/A Fog Fog
3:30 AM 48.2 °F 46.4 °F 93% 30.10 in 0.8 mi Calm Calm - N/A   Mist
3:50 AM 48.2 °F 46.4 °F 93% 30.12 in 7.0 mi Calm Calm - N/A   Clear
4:10 AM 48.2 °F 46.4 °F 93% 30.12 in 7.0 mi Calm Calm - N/A   Clear
4:31 AM 48.2 °F 46.4 °F 93% 30.13 in 1.5 mi Calm Calm - N/A   Clear
4:51 AM 48.2 °F 46.4 °F 93% 30.13 in 5.0 mi Calm Calm - N/A   Clear
5:11 AM 48.2 °F 46.4 °F 93% 30.14 in 10.0 mi Calm Calm - N/A   Clear
5:30 AM 48.2 °F 46.4 °F 93% 30.14 in 2.0 mi Calm Calm - N/A   Clear
5:50 AM 46.4 °F 44.6 °F 93% 30.15 in 4.0 mi Calm Calm - N/A   Clear
6:11 AM 46.4 °F 44.6 °F 93% 30.15 in 10.0 mi Calm Calm - N/A   Clear
6:30 AM 46.4 °F 44.6 °F 93% 30.17 in 10.0 mi Calm Calm - N/A   Clear
6:51 AM 46.4 °F 44.6 °F 93% 30.17 in 10.0 mi Calm Calm - N/A   Clear
7:11 AM 46.4 °F 46.4 °F 100% 30.18 in 10.0 mi Calm Calm - N/A   Clear
7:30 AM 48.2 °F 46.4 °F 93% 30.19 in 10.0 mi Calm Calm - N/A   Clear
7:51 AM 50.0 °F 48.2 °F 94% 30.19 in 10.0 mi Calm Calm - N/A   Clear
8:10 AM 53.6 °F 50.0 °F 88% 30.19 in 10.0 mi Calm Calm - N/A   Clear
8:30 AM 53.6 °F 51.8 °F 94% 30.19 in 10.0 mi Calm Calm - N/A   Clear
8:51 AM 55.4 °F 51.8 °F 88% 30.19 in 10.0 mi Calm Calm - N/A   Clear
9:11 AM 57.2 °F 51.8 °F 82% 30.19 in 10.0 mi Calm Calm - N/A   Clear
9:31 AM 60.8 °F 51.8 °F 72% 30.19 in 10.0 mi Calm Calm - N/A   Clear
9:50 AM 62.6 °F 53.6 °F 72% 30.20 in 10.0 mi Calm Calm - N/A   Clear
10:11 AM 62.6 °F 53.6 °F 72% 30.20 in 10.0 mi Calm Calm - N/A   Clear
10:31 AM 66.2 °F 51.8 °F 60% 30.20 in 10.0 mi Calm Calm - N/A   Clear
10:50 AM 66.2 °F 51.8 °F 60% 30.21 in 10.0 mi Calm Calm - N/A   Clear
11:11 AM 68.0 °F 50.0 °F 52% 30.21 in 10.0 mi Calm Calm - N/A   Clear
11:30 AM 69.8 °F 46.4 °F 43% 30.21 in 10.0 mi Calm Calm - N/A   Clear
11:50 AM 69.8 °F 44.6 °F 40% 30.21 in 10.0 mi Calm Calm - N/A   Clear
12:11 PM 71.6 °F 42.8 °F 35% 30.20 in 10.0 mi Calm Calm - N/A   Clear
12:30 PM 71.6 °F 44.6 °F 38% 30.21 in 10.0 mi Calm Calm - N/A   Clear
12:50 PM 71.6 °F 44.6 °F 38% 30.20 in 10.0 mi Calm Calm - N/A   Clear
1:11 PM 71.6 °F 46.4 °F 41% 30.20 in 10.0 mi Calm Calm - N/A   Clear
1:30 PM 71.6 °F 44.6 °F 38% 30.20 in 10.0 mi Calm Calm - N/A   Clear
1:50 PM 73.4 °F 44.6 °F 36% 30.20 in 10.0 mi Calm Calm - N/A   Clear
2:11 PM 71.6 °F 44.6 °F 38% 30.20 in 10.0 mi NNW 6.9 mph - N/A   Scattered Clouds
2:31 PM 73.4 °F 44.6 °F 36% 30.20 in 10.0 mi NNW 4.6 mph - N/A   Scattered Clouds
2:51 PM 73.4 °F 44.6 °F 36% 30.20 in 10.0 mi NW 6.9 mph - N/A   Clear
3:11 PM 73.4 °F 44.6 °F 36% 30.19 in 10.0 mi North 8.1 mph - N/A   Scattered Clouds
3:30 PM 73.4 °F 44.6 °F 36% 30.19 in 10.0 mi Calm Calm - N/A   Clear
3:51 PM 73.4 °F 44.6 °F 36% 30.19 in 10.0 mi North 4.6 mph - N/A   Clear
4:11 PM 73.4 °F 44.6 °F 36% 30.19 in 10.0 mi Calm Calm - N/A   Clear
4:31 PM 73.4 °F 42.8 °F 33% 30.18 in 10.0 mi Calm Calm - N/A   Clear
4:51 PM 73.4 °F 42.8 °F 33% 30.19 in 10.0 mi Calm Calm - N/A   Clear
5:11 PM 73.4 °F 44.6 °F 36% 30.18 in 10.0 mi Calm Calm - N/A   Clear
5:30 PM 73.4 °F 44.6 °F 36% 30.18 in 10.0 mi Calm Calm - N/A   Clear
5:51 PM 73.4 °F 44.6 °F 36% 30.18 in 10.0 mi Calm Calm - N/A   Clear
6:10 PM 71.6 °F 44.6 °F 38% 30.18 in 10.0 mi Calm Calm - N/A   Clear
6:31 PM 69.8 °F 50.0 °F 49% 30.17 in 10.0 mi Calm Calm - N/A   Clear
6:51 PM 69.8 °F 51.8 °F 53% 30.17 in 10.0 mi Calm Calm - N/A   Clear
7:11 PM 66.2 °F 51.8 °F 60% 30.17 in 10.0 mi Calm Calm - N/A   Clear
7:30 PM 66.2 °F 53.6 °F 64% 30.17 in 10.0 mi Calm Calm - N/A   Clear
7:51 PM 64.4 °F 53.6 °F 68% 30.17 in 10.0 mi Calm Calm - N/A   Clear
8:11 PM 64.4 °F 51.8 °F 64% 30.18 in 10.0 mi Calm Calm - N/A   Clear
8:31 PM 62.6 °F 53.6 °F 72% 30.18 in 10.0 mi Calm Calm - N/A   Clear
8:51 PM 62.6 °F 53.6 °F 72% 30.20 in 10.0 mi Calm Calm - N/A   Clear
9:10 PM 62.6 °F 51.8 °F 68% 30.20 in 5.0 mi Calm Calm - N/A   Haze
9:30 PM 62.6 °F 51.8 °F 68% 30.21 in 10.0 mi Calm Calm - N/A   Clear
9:51 PM 60.8 °F 51.8 °F 72% 30.21 in 10.0 mi Calm Calm - N/A   Clear
10:11 PM 60.8 °F 51.8 °F 72% 30.22 in 10.0 mi Calm Calm - N/A   Clear
10:31 PM 62.6 °F 51.8 °F 68% 30.23 in 10.0 mi Calm Calm - N/A   Clear
10:50 PM 60.8 °F 51.8 °F 72% 30.24 in 10.0 mi Calm Calm - N/A   Clear
11:11 PM 60.8 °F 53.6 °F 77% 30.24 in 10.0 mi Calm Calm - N/A   Clear
11:30 PM 60.8 °F 51.8 °F 72% 30.24 in 10.0 mi Calm Calm - N/A   Clear
11:51 PM 60.8 °F 53.6 °F 77% 30.24 in 10.0 mi Calm Calm - N/A   Clear